FW2916 Weather Reports


Display with metric or nautical units.
time (UTC)temp
F
wind
direction
speed
MPH
gust
MPH
rain 1hr
in
rain 24hr
in
rain mn
in
humidity
%
barometer
mb
20260504223034 84 239 2.0 4.0 0.00 0.00 0.00 48 1001.5
20260504221539 82 142 1.0 6.0 0.00 0.00 0.00 50 1001.6
20260504220036 81 0 1.0 6.0 0.00 0.00 0.00 51 1001.7
20260504214534 82 295 1.0 6.0 0.00 0.00 0.00 50 1001.9
20260504213037 81 180 1.0 4.0 0.00 0.00 0.00 51 1002.0
20260504211533 81 251 2.0 6.0 0.00 0.00 0.00 50 1002.1
20260504210037 82 235 2.0 8.0 0.00 0.00 0.00 48 1002.2
20260504204535 83 38 2.0 7.0 0.00 0.00 0.00 47 1002.3
20260504203036 84 211 1.0 5.0 0.00 0.00 0.00 48 1002.5
20260504201534 84 6 1.0 7.0 0.00 0.00 0.00 49 1002.3
20260504200035 83 72 2.0 7.0 0.00 0.00 0.00 49 1002.5
20260504194540 83 148 2.0 8.0 0.00 0.00 0.00 48 1002.6
20260504193036 83 252 2.0 8.0 0.00 0.00 0.00 48 1002.6
20260504191535 83 130 2.0 8.0 0.00 0.00 0.00 50 1002.7
20260504190037 82 0 2.0 8.0 0.00 0.00 0.00 49 1002.9
20260504184534 82 117 1.0 6.0 0.00 0.00 0.00 49 1002.9
20260504183041 81 231 1.0 7.0 0.00 0.00 0.00 50 1003.0
20260504181536 81 93 1.0 7.0 0.00 0.00 0.00 52 1003.1
20260504180035 81 169 1.0 6.0 0.00 0.00 0.00 51 1003.3
20260504174535 80 285 0.0 7.0 0.00 0.00 0.00 51 1003.4
20260504173041 79 85 2.0 10.0 0.00 0.00 0.00 53 1003.6
20260504171545 79 226 2.0 7.0 0.00 0.00 0.00 51 1003.4
20260504081541 65 75 1.0 5.0 0.00 0.00 0.00 60 1005.1
20260504044540 60 0 0.0 0.0 0.00 0.00 0.00 76 1007.4
20260504043048 61 0 0.0 0.0 0.00 0.00 0.00 73 1007.1
20260504041541 62 0 0.0 0.0 0.00 0.00 0.00 69 1007.1
20260504040042 64 0 0.0 0.0 0.00 0.00 0.00 67 1007.2
20260504034536 65 0 0.0 2.0 0.00 0.00 0.00 64 1007.4
20260504033037 65 0 0.0 2.0 0.00 0.00 0.00 66 1007.6
20260504031540 65 0 0.0 3.0 0.00 0.00 0.00 66 1007.8
20260504030035 66 0 0.0 1.0 0.00 0.00 0.00 65 1008.0
20260504024537 65 142 0.0 1.0 0.00 0.00 0.00 65 1007.9
20260504023037 65 0 0.0 1.0 0.00 0.00 0.00 64 1007.8
20260504021535 65 0 0.0 0.0 0.00 0.00 0.00 61 1007.8
20260504020034 67 0 0.0 0.0 0.00 0.00 0.00 60 1007.9
20260504014539 68 0 0.0 0.0 0.00 0.00 0.00 57 1007.8
20260504013051 70 0 0.0 0.0 0.00 0.00 0.00 54 1007.7
20260504011539 71 0 0.0 0.0 0.00 0.00 0.00 50 1007.8
20260504010039 73 0 0.0 0.0 0.00 0.00 0.00 46 1007.6
20260504004535 75 0 0.0 0.0 0.00 0.00 0.00 42 1007.6
20260504003042 76 0 0.0 1.0 0.00 0.00 0.00 40 1007.7
20260504001541 78 159 0.0 3.0 0.00 0.00 0.00 38 1007.7
20260504000043 79 192 0.0 3.0 0.00 0.00 0.00 36 1007.7
20260503234535 80 0 0.0 5.0 0.00 0.00 0.00 34 1008.0
20260503233039 81 152 2.0 9.0 0.00 0.00 0.00 33 1008.1
20260503231534 83 337 1.0 10.0 0.00 0.00 0.00 34 1008.1
20260503230041 84 158 2.0 9.0 0.00 0.00 0.00 32 1008.1
20260503224541 84 180 2.0 9.0 0.00 0.00 0.00 30 1008.2